FREGAT DEB, 45841

Orbit data source: Space-Track

FREGAT DEB, 45841 is space debris in LEO originally from a launch on Mon, 18 Jul 2011 UTC launched from the Tyuratam Missile And Space Complex (TTMTR). Debris objects in space refer to the collection of defunct objects orbiting the Earth. Examples of debris include non-operational satellites, rocket bodies, and fragments generated from explosions, collisions, or faulty payload assembly.

Loading next visibility...
Identifier
45841, 2011-037CB
Orbit
LEO
Country
Flag of CISCIS
Related business
Manufacturer
Lavochkin
Mission
Spacecraft
Bus & Motor
Unknown
Mass
Unknown
Launch date (UTC)
2011-07-18 (15 years ago)
Launch vehicle
Unknown
Launch site
Tyuratam Missile And Space Complex (TTMTR)
Object type
Payload
Rocket body
Debris
Shape & HBR
Unknown shape, 0.1 m
Radar Cross Section
Medium (>0.1 m² and <1 m²)

Expand to show TLE details & history
Last TLE update: 22 hours ago

TLE from 22 hours ago
0 FREGAT DEB
1 45841U 11037CB  26254.73413075  .00000342  00000-0  66424-3 0  9997
2 45841  51.5204  31.1062 1928778 212.1030 134.6564 10.59839822242683
Epoch: 2026-09-11T17:37Z
TLE epoch observation values (Epoch: 2026-09-11T17:37:08.896Z)
Latitude
-0.00004°
Longitude
136.06587°
Altitude
3,699.055 km
Speed
5.797 km/s
True Right ascension
02h 04m 25s
True Declination
0° 00' 00"
Sunlit
Object was in daylight at epoch
Visualization orbit readout
Latitude
Unknown
Longitude
Unknown
Altitude
Unknown
Speed
Unknown
Apparent Right ascension
Unknown
Apparent Declination
Unknown
Sunlit
N/A
Visualization observer readout
Local Sidereal Time
08:02:32
Azimuth
Unknown
Elevation
Unknown
Doppler factor
Unknown
Orbital elements
Apogee altitude
4,065.68 km
Perigee altitude
688.334 km
Semi-major axis
8,755.144 km
Eccentricity
0.19288
Inclination
51.5204°
RAAN
31.1062°
Arg. of periapsis
212.103°
True anomaly
147.97277°
Mean anomaly
134.6564°
Eccentric anomaly
141.53116°
Mean motion
2.6494 °/min
Orbital period
135.88 mins
BSTAR
0.00066424
Loading maneuver chart data...
Computing Atmospheric mass density...
Loading historical data...
Loading historical data...
Loading historical data...
Loading historical data...
Loading historical data...
Loading historical data...
Loading historical data...

Documentation

Showing up to 5 results
|